Вернуться в каталог

STARLINK-3292

АктивенСвязьVLEO
NORAD 50174·PAYLOAD·🇺🇸 United States

Запущен Dec 18, 2021 с Vandenberg Space Force Base

Loading…

Ближайшие Пролёты (ближайшие 24 часа)

TLE

СвежийSource: CelesTrak SupGP

Эпоха: Sep 14, 2026, 14:22 UTC

1 50174C 21125U   26257.59909722  .00004723  00000+0  13952-3 0  2578
2 50174  53.1577 101.1406 0001191  91.4062 114.0596 15.34389543    16

Отслеживайте STARLINK-3292 в реальном времени с AllMySat

Download on the App Store